| time (UTC) | temp C | wind direction | speed KPH | gust KPH | rain 1hr cm | rain 24hr cm | rain mn cm | humidity % | barometer mb |
| 20260506084004 | 24 | 166 | 0.0 | 9.7 | 0.00 | 0.00 | 0.00 | 88 | 1008.3 |
| 20260506083004 | 24 | 162 | 6.4 | 17.7 | 0.00 | 0.00 | 0.00 | 88 | 1008.2 |
| 20260506082004 | 24 | 153 | 0.0 | 8.0 | 0.00 | 0.00 | 0.00 | 88 | 1008.3 |
| 20260506073004 | 25 | 28 | 0.0 | 8.0 | 0.00 | 0.00 | 0.00 | 88 | 1008.7 |
| 20260506072004 | 25 | 20 | 0.0 | 8.0 | 0.00 | 0.00 | 0.00 | 88 | 1008.9 |
| 20260506071004 | 25 | 17 | 0.0 | 9.7 | 0.00 | 0.00 | 0.00 | 87 | 1009.1 |
| 20260506062005 | 25 | 140 | 0.0 | 6.4 | 0.00 | 0.00 | 0.00 | 86 | 1009.3 |
| 20260506061004 | 25 | 126 | 0.0 | 6.4 | 0.00 | 0.00 | 0.00 | 86 | 1009.3 |
| 20260506051004 | 25 | 349 | 0.0 | 11.3 | 0.00 | 0.00 | 0.00 | 85 | 1009.3 |
| 20260506045004 | 25 | 10 | 0.0 | 14.5 | 0.00 | 0.00 | 0.00 | 85 | 1009.3 |
| 20260506044004 | 25 | 164 | 0.0 | 16.1 | 0.00 | 0.00 | 0.00 | 85 | 1009.1 |
| 20260506043004 | 25 | 152 | 4.8 | 9.7 | 0.00 | 0.00 | 0.00 | 85 | 1009.0 |
| 20260506042004 | 25 | 20 | 3.2 | 11.3 | 0.00 | 0.00 | 0.00 | 84 | 1008.6 |
| 20260506041004 | 25 | 350 | 16.1 | 16.1 | 0.00 | 0.00 | 0.00 | 84 | 1008.6 |
| 20260506040004 | 25 | 104 | 0.0 | 14.5 | 0.00 | 0.00 | 0.00 | 84 | 1008.7 |
| 20260506035004 | 25 | 355 | 0.0 | 11.3 | 0.00 | 0.00 | 0.00 | 84 | 1008.7 |
| 20260506034004 | 25 | 17 | 0.0 | 17.7 | 0.00 | 0.00 | 0.00 | 83 | 1008.5 |
| 20260506033004 | 25 | 1 | 0.0 | 11.3 | 0.00 | 0.00 | 0.00 | 83 | 1008.5 |
| 20260506031004 | 25 | 162 | 0.0 | 14.5 | 0.00 | 0.00 | 0.00 | 83 | 1008.5 |
| 20260506030004 | 25 | 175 | 0.0 | 9.7 | 0.00 | 0.00 | 0.00 | 82 | 1008.3 |
| 20260506025004 | 26 | 42 | 3.2 | 8.0 | 0.00 | 0.00 | 0.00 | 82 | 1008.3 |
| 20260506024003 | 26 | 141 | 0.0 | 6.4 | 0.00 | 0.00 | 0.00 | 82 | 1008.3 |
| 20260506023003 | 26 | 164 | 0.0 | 1.6 | 0.00 | 0.00 | 0.00 | 82 | 1008.0 |
| 20260506021003 | 26 | 168 | 9.7 | 9.7 | 0.00 | 0.00 | 0.00 | 81 | 1007.7 |
| 20260506020003 | 26 | 167 | 0.0 | 4.8 | 0.00 | 0.00 | 0.00 | 81 | 1007.6 |
| 20260506015004 | 26 | 167 | 0.0 | 9.7 | 0.00 | 0.00 | 0.00 | 81 | 1007.5 |
| 20260506014004 | 26 | 165 | 0.0 | 8.0 | 0.00 | 0.00 | 0.00 | 81 | 1007.2 |
| 20260506013003 | 26 | 162 | 0.0 | 6.4 | 0.00 | 0.00 | 0.00 | 80 | 1007.1 |
| 20260506011003 | 26 | 349 | 0.0 | 9.7 | 0.00 | 0.00 | 0.00 | 80 | 1006.8 |
| 20260506005003 | 26 | 345 | 0.0 | 9.7 | 0.00 | 0.00 | 0.00 | 79 | 1006.7 |
| 20260506004003 | 27 | 343 | 0.0 | 8.0 | 0.00 | 0.00 | 0.00 | 78 | 1006.6 |
| 20260506003003 | 27 | 3 | 0.0 | 8.0 | 0.00 | 0.00 | 0.00 | 78 | 1006.5 |
| 20260506002005 | 27 | 12 | 0.0 | 9.7 | 0.00 | 0.00 | 0.00 | 77 | 1006.6 |
| 20260506001004 | 27 | 175 | 3.2 | 6.4 | 0.00 | 0.00 | 0.00 | 78 | 1006.5 |
| 20260506000004 | 27 | 175 | 0.0 | 1.6 | 0.00 | 0.00 | 0.00 | 77 | 1006.5 |
| 20260505234004 | 27 | 175 | 0.0 | 9.7 | 0.00 | 0.00 | 0.00 | 76 | 1006.5 |
| 20260505233004 | 27 | 170 | 0.0 | 6.4 | 0.00 | 0.00 | 0.00 | 76 | 1006.5 |
| 20260505232004 | 28 | 157 | 0.0 | 9.7 | 0.00 | 0.00 | 0.00 | 75 | 1006.5 |
| 20260505230004 | 28 | 164 | 0.0 | 8.0 | 0.00 | 0.00 | 0.00 | 75 | 1006.5 |
| 20260505225005 | 28 | 87 | 0.0 | 12.9 | 0.00 | 0.00 | 0.00 | 74 | 1006.6 |
| 20260505224004 | 28 | 189 | 0.0 | 14.5 | 0.00 | 0.00 | 0.00 | 73 | 1006.5 |
| 20260505222004 | 28 | 175 | 0.0 | 12.9 | 0.00 | 0.00 | 0.00 | 73 | 1006.4 |
| 20260505221004 | 28 | 157 | 3.2 | 12.9 | 0.00 | 0.00 | 0.00 | 73 | 1006.5 |
| 20260505215004 | 28 | 163 | 6.4 | 14.5 | 0.00 | 0.00 | 0.00 | 73 | 1006.5 |
| 20260505214004 | 28 | 163 | 1.6 | 17.7 | 0.00 | 0.00 | 0.00 | 73 | 1006.7 |
| 20260505213004 | 28 | 41 | 4.8 | 20.9 | 0.00 | 0.00 | 0.00 | 73 | 1006.9 |
| 20260505211004 | 28 | 145 | 0.0 | 16.1 | 0.00 | 0.00 | 0.00 | 73 | 1007.1 |
| 20260505210005 | 28 | 160 | 0.0 | 14.5 | 0.00 | 0.00 | 0.00 | 73 | 1007.2 |
| 20260505204004 | 28 | 162 | 3.2 | 14.5 | 0.00 | 0.00 | 0.00 | 72 | 1007.6 |
| 20260505202004 | 28 | 78 | 0.0 | 9.7 | 0.00 | 0.00 | 0.00 | 74 | 1007.8 |
| 20260505201004 | 28 | 111 | 0.0 | 14.5 | 0.00 | 0.00 | 0.00 | 73 | 1008.0 |
| 20260505200004 | 28 | 169 | 0.0 | 12.9 | 0.00 | 0.00 | 0.00 | 72 | 1008.1 |
| 20260505195005 | 28 | 149 | 6.4 | 9.7 | 0.00 | 0.00 | 0.00 | 74 | 1008.2 |
| 20260505194004 | 28 | 100 | 0.0 | 16.1 | 0.00 | 0.00 | 0.00 | 74 | 1008.3 |
| 20260505193004 | 28 | 157 | 8.0 | 17.7 | 0.00 | 0.00 | 0.00 | 76 | 1008.4 |
| 20260505192004 | 27 | 168 | 0.0 | 14.5 | 0.00 | 0.00 | 0.00 | 76 | 1008.4 |
| 20260505191004 | 27 | 161 | 1.6 | 16.1 | 0.00 | 0.00 | 0.00 | 75 | 1008.4 |
| 20260505190005 | 28 | 175 | 4.8 | 14.5 | 0.00 | 0.00 | 0.00 | 76 | 1008.5 |
| 20260505185004 | 27 | 144 | 12.9 | 16.1 | 0.00 | 0.00 | 0.00 | 77 | 1008.5 |
| 20260505184004 | 27 | 180 | 0.0 | 8.0 | 0.00 | 0.00 | 0.00 | 79 | 1008.7 |
| 20260505183005 | 27 | 170 | 6.4 | 9.7 | 0.00 | 0.00 | 0.00 | 78 | 1008.9 |
| 20260505180004 | 27 | 170 | 0.0 | 9.7 | 0.00 | 0.00 | 0.00 | 79 | 1009.1 |
| 20260505174003 | 27 | 116 | 3.2 | 19.3 | 0.00 | 0.00 | 0.00 | 77 | 1009.1 |
| 20260505173004 | 27 | 170 | 6.4 | 14.5 | 0.00 | 0.00 | 0.00 | 78 | 1009.1 |
| 20260505172004 | 27 | 163 | 14.5 | 17.7 | 0.00 | 0.00 | 0.00 | 78 | 1009.1 |
| 20260505171004 | 26 | 163 | 0.0 | 14.5 | 0.00 | 0.00 | 0.00 | 80 | 1009.3 |
| 20260505170004 | 26 | 158 | 0.0 | 16.1 | 0.00 | 0.00 | 0.00 | 82 | 1009.4 |
| 20260505165003 | 26 | 170 | 0.0 | 16.1 | 0.00 | 0.00 | 0.00 | 81 | 1009.4 |
| 20260505164003 | 26 | 136 | 6.4 | 11.3 | 0.00 | 0.00 | 0.00 | 81 | 1009.3 |
| 20260505163004 | 26 | 68 | 0.0 | 12.9 | 0.00 | 0.00 | 0.00 | 82 | 1009.5 |
| 20260505162003 | 25 | 164 | 3.2 | 9.7 | 0.00 | 0.00 | 0.00 | 82 | 1009.6 |
| 20260505161004 | 25 | 169 | 6.4 | 12.9 | 0.00 | 0.00 | 0.00 | 83 | 1009.6 |
| 20260505152003 | 24 | 129 | 0.0 | 12.9 | 0.00 | 0.00 | 0.00 | 84 | 1009.2 |
| 20260505151003 | 24 | 167 | 0.0 | 8.0 | 0.00 | 0.00 | 0.00 | 85 | 1009.3 |
| 20260505125004 | 22 | 175 | 0.0 | 4.8 | 0.00 | 0.00 | 0.00 | 89 | 1009.2 |
| 20260505124003 | 22 | 175 | 0.0 | 8.0 | 0.00 | 0.00 | 0.00 | 89 | 1008.8 |
| 20260505123004 | 22 | 175 | 8.0 | 9.7 | 0.00 | 0.00 | 0.00 | 89 | 1008.5 |
| 20260505122004 | 22 | 175 | 0.0 | 14.5 | 0.00 | 0.00 | 0.00 | 89 | 1008.5 |
| 20260505114004 | 21 | 2 | 0.0 | 4.8 | 0.00 | 0.00 | 0.00 | 89 | 1008.5 |
| 20260505113005 | 21 | 149 | 8.0 | 8.0 | 0.00 | 0.00 | 0.00 | 89 | 1008.3 |
| 20260505111005 | 21 | 154 | 1.6 | 9.7 | 0.00 | 0.00 | 0.00 | 89 | 1008.5 |
| 20260505102004 | 21 | 2 | 4.8 | 8.0 | 0.00 | 0.00 | 0.00 | 89 | 1008.4 |
| 20260505100004 | 21 | 175 | 0.0 | 6.4 | 0.00 | 0.00 | 0.00 | 89 | 1008.7 |
| 20260505095004 | 21 | 175 | 0.0 | 6.4 | 0.00 | 0.00 | 0.00 | 89 | 1008.7 |
| 20260505094004 | 21 | 45 | 0.0 | 6.4 | 0.00 | 0.00 | 0.00 | 88 | 1008.6 |
| 20260505093004 | 21 | 166 | 0.0 | 6.4 | 0.00 | 0.00 | 0.00 | 89 | 1008.6 |
| 20260505092004 | 21 | 166 | 0.0 | 8.0 | 0.00 | 0.00 | 0.00 | 88 | 1008.8 |
| 20260505091004 | 21 | 166 | 0.0 | 9.7 | 0.00 | 0.00 | 0.00 | 88 | 1009.0 |
| 20260505090004 | 21 | 163 | 0.0 | 1.6 | 0.00 | 0.00 | 0.00 | 88 | 1008.9 |